[[{"header":{"parameterUnit":"m.s-1","parameterCategory":1,"la1":30.2992,"la2":30.254,"lo1":-89.0895,"lo2":-89.0443,"dy":0.0025,"dx":0.0025,"nx":19,"ny":19,"refTime":"2026-05-08T21:00:00:Z","depth":0,"parameterNumber":2,"parameterNumberName":"U-component_of_WINDS"},"data":[0,0,0,-0.8572,-0.8569,-0.8383,-0.8382,-0.8177,-0.8175,0,0,0,0,0,0,0,0,0,0,0,-0.8649,-0.8649,-0.8572,-0.8568,-0.8383,-0.8382,-0.8177,-0.8175,0,0,0,0,0,0,0,0,0,0,0,-0.8649,-0.8649,-0.8648,-0.8568,-0.8383,-0.8382,-0.8177,-0.8305,0,0,0,0,0,0,0,0,0,0,-0.848,-0.8573,-0.8649,-0.8648,-0.8567,-0.8383,-0.8382,-0.8311,-0.8297,-0.8276,0,-0.8264,0,-0.8217,-0.8164,-0.8163,0,0,0,-0.8551,-0.8585,-0.8515,-0.8648,-0.8565,-0.8384,-0.8462,-0.8303,-0.8288,-0.8258,-0.8261,-0.8252,-0.8214,-0.8163,-0.8162,-0.81,-0.8101,0,0,-0.8561,-0.8627,-0.8526,-0.8506,-0.854,-0.8468,-0.8456,-0.8293,-0.83,-0.826,-0.8247,-0.821,-0.8162,-0.816,-0.81,-0.81,0,0,0,-0.8603,-0.8635,-0.8568,-0.8516,-0.848,-0.8463,-0.8449,-0.8307,-0.828,-0.8244,-0.8208,-0.8161,-0.8159,-0.8099,-0.81,-0.8191,0,0,0,-0.8608,-0.8659,-0.8574,-0.8612,-0.8484,-0.8392,-0.8468,-0.8291,-0.8271,-0.8209,-0.8161,-0.8157,-0.8098,-0.8099,-0.8187,-0.8223,0,0,0,-0.8654,-0.8664,-0.8645,-0.8616,-0.8539,-0.8393,-0.8356,-0.8285,-0.8249,-0.8163,-0.8156,-0.8098,-0.8099,-0.8184,-0.8217,-0.8226,0,0,0,-0.8721,-0.8727,-0.8647,-0.8639,-0.8541,-0.8452,-0.8356,-0.8285,-0.8222,-0.816,-0.8098,-0.81,-0.8182,-0.8213,-0.8223,-0.8247,-0.8263,0,0,-0.8764,-0.8734,-0.8724,-0.8648,-0.859,-0.8474,-0.8428,-0.8307,-0.8237,-0.8149,-0.8147,-0.8188,-0.8216,-0.8226,-0.833,-0.8343,0,0,0,-0.876,-0.8754,-0.8724,-0.8669,-0.8578,-0.8503,-0.8382,-0.8337,-0.826,-0.8206,-0.8192,-0.8206,-0.8209,-0.8218,-0.8229,-0.8227,-0.8106,-0.8106,-0.8106,-0.8916,-0.8829,-0.8806,-0.8697,-0.8644,-0.8521,-0.8469,-0.8387,-0.8312,-0.831,-0.8284,-0.8358,-0.837,-0.8378,-0.8378,-0.8289,-0.8289,-0.8289,-0.829,-0.8972,-0.895,-0.8853,-0.8797,-0.8704,-0.8655,-0.8535,-0.8485,-0.8424,-0.837,-0.8368,-0.8318,-0.8396,-0.8391,-0.8295,-0.8294,-0.8294,-0.8293,-0.8293,-0.9065,-0.904,-0.8986,-0.8898,-0.8839,-0.8726,-0.8674,-0.859,-0.851,-0.8508,-0.8472,-0.847,-0.8458,-0.8497,-0.8497,-0.8497,-0.8498,-0.8498,-0.8498,-0.9183,-0.912,-0.9088,-0.8993,-0.8947,-0.8875,-0.8751,-0.8702,-0.8626,-0.8569,-0.8568,-0.8495,-0.842,-0.8404,-0.8501,-0.8501,-0.85,-0.85,-0.85,-0.9274,-0.9241,-0.9191,-0.9145,-0.9026,-0.8974,-0.8868,-0.8776,-0.8723,-0.87,-0.8626,-0.8585,-0.8546,-0.8537,-0.8523,-0.8645,-0.8645,-0.8645,-0.8645,-0.9354,-0.9327,-0.9257,-0.9189,-0.9113,-0.9012,-0.8957,-0.886,-0.8754,-0.8716,-0.8686,-0.866,-0.8654,-0.8619,-0.8607,-0.8593,-0.873,-0.873,-0.873,-0.9405,-0.9367,-0.9338,-0.9236,-0.9137,-0.9054,-0.9,-0.8924,-0.8796,-0.8732,-0.8684,-0.8681,-0.8637,-0.8628,-0.8564,-0.8548,-0.8519,0,0]},{"header":{"parameterUnit":"m.s-1","parameterCategory":1,"la1":30.2992,"la2":30.254,"lo1":-89.0895,"lo2":-89.0443,"dy":0.0025,"dx":0.0025,"nx":19,"ny":19,"refTime":"2026-05-08T21:00:00:Z","depth":0,"parameterNumber":3,"parameterNumberName":"V-component_of_WINDS"},"data":[0,0,0,3.3,3.3001,3.3061,3.3061,3.3133,3.3133,0,0,0,0,0,0,0,0,0,0,0,3.2981,3.2982,3.3,3.3001,3.3061,3.3061,3.3133,3.3133,0,0,0,0,0,0,0,0,0,0,0,3.2981,3.2982,3.2982,3.3001,3.3061,3.3061,3.3132,3.3088,0,0,0,0,0,0,0,0,0,0,3.3031,3.3014,3.2981,3.2982,3.3002,3.3061,3.3061,3.3086,3.3091,3.3104,0,3.3118,0,3.3127,3.3138,3.3138,0,0,0,3.3001,3.301,3.3027,3.2982,3.3002,3.3061,3.3034,3.3089,3.3095,3.3111,3.3119,3.3121,3.3128,3.3139,3.3139,3.322,3.3221,0,0,3.2998,3.2991,3.3023,3.303,3.3024,3.3032,3.3036,3.3092,3.31,3.3119,3.3123,3.3129,3.3139,3.314,3.322,3.3221,0,0,0,3.2988,3.2989,3.3004,3.3027,3.3039,3.3034,3.3038,3.3097,3.3103,3.3124,3.313,3.3139,3.314,3.322,3.322,3.3235,0,0,0,3.2986,3.2983,3.3003,3.2999,3.3038,3.3069,3.3042,3.3099,3.3106,3.313,3.3139,3.3141,3.3219,3.322,3.3233,3.3243,0,0,0,3.2977,3.2982,3.2991,3.2999,3.3025,3.3069,3.3078,3.3101,3.311,3.3138,3.3141,3.3219,3.322,3.3232,3.3241,3.3263,0,0,0,3.2966,3.3001,3.2991,3.3033,3.3024,3.3078,3.3077,3.3117,3.3143,3.314,3.3219,3.322,3.3232,3.324,3.3262,3.3282,3.3289,0,0,3.3007,3.3006,3.3031,3.3024,3.3078,3.3069,3.3124,3.3153,3.316,3.3199,3.3201,3.3234,3.3241,3.3263,3.3332,3.3338,0,0,0,3.3042,3.306,3.3076,3.3102,3.3126,3.3148,3.3169,3.318,3.3214,3.318,3.3248,3.3252,3.3265,3.3275,3.328,3.3292,3.3224,3.3224,3.3224,3.309,3.31,3.3142,3.3159,3.3184,3.3207,3.3227,3.3245,3.3246,3.3262,3.3274,3.3315,3.3326,3.333,3.3342,3.3284,3.3284,3.3284,3.3284,3.3152,3.318,3.3181,3.3223,3.3232,3.3267,3.3289,3.3289,3.3321,3.3306,3.3318,3.3302,3.3336,3.3348,3.3285,3.3285,3.3285,3.3285,3.3285,3.3186,3.3201,3.3215,3.3254,3.3283,3.3297,3.3329,3.3335,3.3341,3.3353,3.3367,3.3367,3.3368,3.3359,3.3359,3.336,3.336,3.336,3.336,3.3215,3.3231,3.3258,3.3288,3.3306,3.333,3.3353,3.3371,3.3391,3.3393,3.3393,3.3392,3.3338,3.3325,3.3362,3.3362,3.3361,3.3361,3.3361,3.3276,3.3264,3.3306,3.3325,3.336,3.3389,3.3396,3.3431,3.3446,3.3461,3.3458,3.3417,3.3415,3.3411,3.3401,3.3455,3.3455,3.3455,3.3455,3.3305,3.3306,3.3351,3.338,3.3409,3.3421,3.3467,3.3485,3.3501,3.3511,3.3503,3.3489,3.3485,3.3486,3.3481,3.3471,3.3542,3.3542,3.3542,3.3343,3.3347,3.3387,3.3405,3.3433,3.3457,3.3501,3.3533,3.3548,3.3546,3.3519,3.3515,3.3492,3.3484,3.3482,3.3474,3.3456,0,0]}]]